When you browse on this site, cookies collect data to enhance your experience and personalize the content and advertising you see.
Visit our Privacy Policy to learn more. By continuing to use the site, you agree to this use of cookies and data.
  • In Schweiz
  • Länderverzeichnis
  • Für 7 Tage
  • Wassertemperatur
  • Satellitenkarten
  • Wetterkarte
  • Widgets
  • user-avatar
    Anmelden

    Stündliche Wetter Pleskachivka

    Heute, 22 April, Montag

    Zeit Temperatur Niederschläge Wind Luftdruck Luftfeuchtigkeit
    00:00 +9°C° 0 mm 2 m/S 755 mmHg 47%
    01:00 +9°C° 0 mm 2 m/S 755 mmHg 48%
    02:00 +9°C° 0 mm 2 m/S 755 mmHg 49%
    03:00 +9°C° 0 mm 2 m/S 755 mmHg 49%
    04:00 +8°C° 0 mm 3 m/S 756 mmHg 50%
    05:00 +8°C° 0 mm 3 m/S 756 mmHg 51%
    06:00 +9°C° 0 mm 3 m/S 756 mmHg 49%
    07:00 +10°C° 0 mm 4 m/S 756 mmHg 47%
    08:00 +11°C° 0 mm 4 m/S 757 mmHg 45%
    09:00 +12°C° 0 mm 4 m/S 757 mmHg 41%
    10:00 +13°C° 0 mm 5 m/S 757 mmHg 37%
    11:00 +14°C° 0 mm 5 m/S 757 mmHg 33%
    12:00 +14°C° 0 mm 5 m/S 757 mmHg 33%
    13:00 +15°C° 0 mm 4 m/S 757 mmHg 34%
    14:00 +15°C° 0 mm 4 m/S 757 mmHg 34%
    15:00 +15°C° 0 mm 4 m/S 757 mmHg 35%
    16:00 +14°C° 0 mm 4 m/S 757 mmHg 37%
    17:00 +14°C° 0 mm 4 m/S 757 mmHg 39%
    18:00 +13°C° 0 mm 3 m/S 757 mmHg 42%
    19:00 +12°C° 0 mm 3 m/S 757 mmHg 45%
    20:00 +12°C° 0 mm 2 m/S 758 mmHg 48%
    21:00 +10°C° 0 mm 3 m/S 758 mmHg 49%
    22:00 +10°C° 0 mm 3 m/S 758 mmHg 51%
    23:00 +10°C° 0 mm 3 m/S 758 mmHg 52%

    Morgen, 23 April, Dienstag

    Zeit Temperatur Niederschläge Wind Luftdruck Luftfeuchtigkeit
    00:00 +10°C° 0 mm 3 m/S 758 mmHg 52%
    01:00 +10°C° 0 mm 2 m/S 759 mmHg 51%
    02:00 +10°C° 0 mm 2 m/S 759 mmHg 51%
    03:00 +9°C° 0 mm 2 m/S 759 mmHg 52%
    04:00 +8°C° 0 mm 2 m/S 759 mmHg 52%
    05:00 +8°C° 0 mm 2 m/S 759 mmHg 53%
    06:00 +9°C° 0 mm 3 m/S 759 mmHg 51%
    07:00 +10°C° 0 mm 3 m/S 759 mmHg 49%
    08:00 +12°C° 0 mm 4 m/S 760 mmHg 48%
    09:00 +13°C° 0 mm 4 m/S 760 mmHg 45%
    10:00 +14°C° 0 mm 4 m/S 760 mmHg 42%
    11:00 +15°C° 0 mm 4 m/S 760 mmHg 39%
    12:00 +16°C° 0 mm 3 m/S 760 mmHg 39%
    13:00 +16°C° 0 mm 3 m/S 760 mmHg 40%
    14:00 +16°C° 0 mm 3 m/S 759 mmHg 41%
    15:00 +16°C° 0 mm 3 m/S 759 mmHg 42%
    16:00 +16°C° 0 mm 3 m/S 759 mmHg 42%
    17:00 +16°C° 0 mm 3 m/S 759 mmHg 43%
    18:00 +15°C° 0 mm 2 m/S 759 mmHg 45%
    19:00 +14°C° 0 mm 2 m/S 759 mmHg 47%
    20:00 +13°C° 0 mm 2 m/S 759 mmHg 50%
    21:00 +13°C° 0 mm 2 m/S 759 mmHg 51%
    22:00 +13°C° 0 mm 2 m/S 760 mmHg 51%
    23:00 +12°C° 0 mm 2 m/S 760 mmHg 52%

    übermorgen, 24 April, Mittwoch

    Zeit Temperatur Niederschläge Wind Luftdruck Luftfeuchtigkeit
    00:00 +12°C° 0 mm 2 m/S 760 mmHg 52%
    01:00 +12°C° 0 mm 2 m/S 760 mmHg 53%
    02:00 +10°C° 0 mm 2 m/S 760 mmHg 54%
    03:00 +9°C° 0 mm 2 m/S 760 mmHg 56%
    04:00 +10°C° 0 mm 1 m/S 760 mmHg 59%
    05:00 +9°C° 0 mm 1 m/S 760 mmHg 61%
    06:00 +11°C° 0 mm 1 m/S 760 mmHg 56%
    07:00 +13°C° 0 mm 2 m/S 760 mmHg 52%
    08:00 +14°C° 0 mm 2 m/S 760 mmHg 47%
    09:00 +16°C° 0 mm 2 m/S 760 mmHg 43%
    10:00 +17°C° 0 mm 3 m/S 760 mmHg 40%
    11:00 +18°C° 0 mm 3 m/S 760 mmHg 36%
    12:00 +18°C° 0 mm 3 m/S 760 mmHg 36%
    13:00 +18°C° 0 mm 3 m/S 760 mmHg 35%
    14:00 +19°C° 0 mm 2 m/S 760 mmHg 35%
    15:00 +19°C° 0 mm 2 m/S 760 mmHg 35%
    16:00 +18°C° 0 mm 2 m/S 759 mmHg 36%
    17:00 +18°C° 0 mm 2 m/S 759 mmHg 37%
    18:00 +17°C° 0 mm 2 m/S 759 mmHg 41%
    19:00 +15°C° 0 mm 2 m/S 759 mmHg 44%
    20:00 +14°C° 0 mm 2 m/S 759 mmHg 47%
    21:00 +13°C° 0 mm 2 m/S 759 mmHg 48%
    22:00 +13°C° 0 mm 2 m/S 760 mmHg 49%
    23:00 +12°C° 0 mm 2 m/S 760 mmHg 50%

    25 April, Donnerstag

    Zeit Temperatur Niederschläge Wind Luftdruck Luftfeuchtigkeit
    00:00 +12°C° 0 mm 1 m/S 760 mmHg 52%
    01:00 +12°C° 0 mm 1 m/S 760 mmHg 54%
    02:00 +11°C° 0 mm 1 m/S 760 mmHg 56%
    03:00 +11°C° 0 mm 1 m/S 760 mmHg 58%
    04:00 +9°C° 0 mm 0 m/S 760 mmHg 59%
    05:00 +9°C° 0 mm 0 m/S 760 mmHg 61%
    06:00 +11°C° 0 mm 0 m/S 760 mmHg 56%
    07:00 +14°C° 0 mm 1 m/S 760 mmHg 52%
    08:00 +16°C° 0 mm 1 m/S 760 mmHg 48%
    09:00 +17°C° 0 mm 2 m/S 760 mmHg 44%
    10:00 +18°C° 0 mm 2 m/S 760 mmHg 41%
    11:00 +20°C° 0 mm 3 m/S 760 mmHg 37%
    12:00 +20°C° 0 mm 2 m/S 760 mmHg 37%
    13:00 +21°C° 0 mm 2 m/S 759 mmHg 36%
    14:00 +21°C° 0 mm 2 m/S 759 mmHg 36%
    15:00 +21°C° 0 mm 2 m/S 758 mmHg 38%
    16:00 +20°C° 0 mm 2 m/S 758 mmHg 40%
    17:00 +20°C° 0 mm 2 m/S 758 mmHg 42%
    18:00 +19°C° 0 mm 2 m/S 758 mmHg 46%
    19:00 +17°C° 0 mm 2 m/S 758 mmHg 49%
    20:00 +16°C° 0 mm 2 m/S 758 mmHg 53%
    21:00 +15°C° 0 mm 2 m/S 757 mmHg 54%
    22:00 +15°C° 0 mm 1 m/S 757 mmHg 56%
    23:00 +14°C° 0 mm 1 m/S 757 mmHg 57%

    26 April, Freitag

    Zeit Temperatur Niederschläge Wind Luftdruck Luftfeuchtigkeit
    00:00 +14°C° 0 mm 1 m/S 757 mmHg 60%
    01:00 +13°C° 0 mm 1 m/S 757 mmHg 62%
    02:00 +13°C° 0 mm 1 m/S 757 mmHg 64%
    03:00 +12°C° 0 mm 1 m/S 757 mmHg 65%
    04:00 +11°C° 0 mm 0 m/S 757 mmHg 67%
    05:00 +11°C° 0 mm 0 m/S 756 mmHg 68%
    06:00 +13°C° 0 mm 1 m/S 756 mmHg 63%
    07:00 +15°C° 0 mm 1 m/S 756 mmHg 58%
    08:00 +18°C° 0 mm 1 m/S 756 mmHg 53%
    09:00 +19°C° 0 mm 2 m/S 756 mmHg 50%
    10:00 +20°C° 0 mm 3 m/S 756 mmHg 46%
    11:00 +22°C° 0 mm 3 m/S 756 mmHg 42%
    12:00 +22°C° 0 mm 3 m/S 755 mmHg 42%
    13:00 +22°C° 0 mm 4 m/S 755 mmHg 43%
    14:00 +22°C° 0 mm 4 m/S 754 mmHg 43%
    15:00 +22°C° 0 mm 3 m/S 754 mmHg 45%
    16:00 +21°C° 0 mm 3 m/S 753 mmHg 47%
    17:00 +21°C° 0 mm 3 m/S 753 mmHg 49%
    18:00 +20°C° 0 mm 2 m/S 753 mmHg 53%
    19:00 +18°C° 0 mm 2 m/S 753 mmHg 56%
    20:00 +17°C° 0 mm 2 m/S 753 mmHg 60%
    21:00 +16°C° 0 mm 2 m/S 753 mmHg 61%
    22:00 +16°C° 0 mm 2 m/S 753 mmHg 63%
    23:00 +15°C° 0 mm 2 m/S 753 mmHg 64%

    27 April, Samstag

    Zeit Temperatur Niederschläge Wind Luftdruck Luftfeuchtigkeit
    00:00 +14°C° 0 mm 2 m/S 753 mmHg 66%
    01:00 +14°C° 0 mm 2 m/S 753 mmHg 67%
    02:00 +13°C° 0 mm 2 m/S 753 mmHg 68%
    03:00 +13°C° 0 mm 1 m/S 753 mmHg 69%
    04:00 +13°C° 0 mm 1 m/S 753 mmHg 70%
    05:00 +11°C° 0 mm 0 m/S 753 mmHg 72%
    06:00 +13°C° 0 mm 0 m/S 753 mmHg 65%
    07:00 +16°C° 0 mm 1 m/S 753 mmHg 59%
    08:00 +19°C° 0 mm 1 m/S 753 mmHg 53%
    09:00 +20°C° 0 mm 1 m/S 753 mmHg 49%
    10:00 +21°C° 0 mm 2 m/S 753 mmHg 45%
    11:00 +22°C° 0 mm 3 m/S 753 mmHg 41%
    12:00 +22°C° 0 mm 3 m/S 753 mmHg 42%
    13:00 +22°C° 0 mm 3 m/S 752 mmHg 42%
    14:00 +21°C° 0 mm 2 m/S 752 mmHg 42%
    15:00 +21°C° 0 mm 2 m/S 752 mmHg 43%
    16:00 +21°C° 0 mm 2 m/S 752 mmHg 44%
    17:00 +22°C° 0 mm 1 m/S 752 mmHg 45%
    18:00 +21°C° 0 mm 1 m/S 752 mmHg 47%
    19:00 +20°C° 0 mm 1 m/S 752 mmHg 49%
    20:00 +19°C° 0 mm 1 m/S 752 mmHg 51%
    21:00 +18°C° 0 mm 1 m/S 752 mmHg 52%
    22:00 +18°C° 0 mm 1 m/S 753 mmHg 54%
    23:00 +18°C° 0 mm 1 m/S 753 mmHg 55%
    Mehr zeigen